Overview Statistics Trail Chart Weather Telemetry Raw packets
 

This is the latest recevied weather packets stored in our database for station/object N7WSS. If no packets are shown the sender has not sent any weather packets the latest 10 day(s).

<< 94 95 96 97 98 99 100 >>
Time Temp. Humidity Pressure Rain* Wind** Luminosity Snow
1787930415 32.22° C 38% 1016 hPa 0 mm - - -
1787930113 31.67° C 39% 1015.7 hPa 0 mm - - -
1787929809 31.67° C 38% 1016 hPa 0 mm - - -
1787929504 31.67° C 38% 1016 hPa 0 mm - - -
1787929205 31.67° C 38% 1015.9 hPa 0 mm - - -
1787928897 30.56° C 40% 1016.1 hPa 0 mm - - -
1787928596 30.56° C 39% 1016 hPa 0 mm - - -
1787928295 30° C 40% 1016.1 hPa 0 mm - - -
1787927994 30° C 40% 1016.1 hPa 0 mm - - -
1787927688 30° C 41% 1016 hPa 0 mm - - -
1787927388 30° C 41% 1016 hPa 0 mm - - -
1787927084 29.44° C 42% 1015.9 hPa 0 mm - - -
1787926779 28.89° C 43% 1016 hPa 0 mm - - -
1787926478 28.89° C 42% 1015.7 hPa 0 mm - - -
1787926177 28.89° C 43% 1016.1 hPa 0 mm - - -
1787925877 28.89° C 43% 1015.6 hPa 0 mm - - -
1787925577 28.89° C 43% 1016 hPa 0 mm - - -
1787925272 28.89° C 43% 1016 hPa 0 mm - - -
1787924971 28.89° C 44% 1015.6 hPa 0 mm - - -
1787924666 28.33° C 45% 1016 hPa 0 mm - - -
1787924361 28.33° C 45% 1015.6 hPa 0 mm - - -
1787924056 28.89° C 43% 1015.6 hPa 0 mm - - -
1787923750 28.89° C 42% 1015.7 hPa 0 mm - - -
1787923445 28.33° C 42% 1015.5 hPa 0 mm - - -
1787923141 28.33° C 43% 1015.4 hPa 0 mm - - -

* Rain latest hour (hover to see other rain measurements)
** Current wind speed in m/s (hover to see current wind gust speed)